sat.trackr.live / text

‹ back to catalog

STARLINK-32719

NORAD 62448 · 2024-251S

PAYLOAD ACTIVE UNKNOWN

§ Identity

Operator
Country
US
Launch date
2024-12-29
Launch site
AFWTR
Launch vehicle
Mass (kg)
RCS (m²)

Purposes: comms

External: N2YO · Heavens-Above · Gunter

§ Orbital elements

Epoch: 2026-09-21T22:57:23.582016Z

Period
93.85 min
Inclination
53.1579°
Eccentricity
0.0001213
Mean motion
15.34398488 rev/d
Perigee alt
461.9 km
Apogee alt
463.5 km
Semi-major
6,840.8 km
B*
5.6279e-4
RAAN
140.9725°
Arg perigee
87.6918°
Mean anomaly
272.4223°
Rev number
9,786

§ Raw data

STARLINK-327191 62448U 24251S   26264.95652294  .00018685  00000+0  56279-3 0  99992 62448  53.1579 140.9725 0001213  87.6918 272.4223 15.34398488 97865

JSON: /api/v1/satellites/62448 · /tle

For live sub-satellite position, see the globe view (requires WebGL).

§ Visibility from observer

Set your observer location to see the next 7 days of passes ≥ 10°. The values pass through the URL so the page stays shareable.

No JS? Fill the form by hand. The geolocation button needs JavaScript.